AO-07 1 07530U 74089B 23229.73753235 -.00000036 00000-0 65657-4 0 9999 2 07530 101.9516 216.8389 0011954 307.6366 226.6948 12.53666188231120 UO-11 1 14781U 84021B 23229.44169943 .00002011 00000-0 24090-3 0 9996 2 14781 97.6624 204.0229 0008348 12.6300 347.5123 14.85132956124232 AO-16 1 20439U 90005D 23229.77236731 .00000243 00000-0 10552-3 0 9991 2 20439 98.8871 221.5930 0011300 28.8657 147.2750 14.33143634753973 LO-19 1 20442U 90005G 23229.39401253 .00000246 00000-0 10624-3 0 9999 2 20442 98.8487 207.2325 0011810 5.1271 355.0031 14.33297367754172 AO-27 1 22825U 93061C 23229.34778242 .00000142 00000-0 72391-4 0 9996 2 22825 98.8369 273.2108 0007416 246.3704 113.6700 14.30333315559307 IO-26 1 22826U 93061D 23229.05598313 .00000172 00000-0 83420-4 0 9992 2 22826 98.8314 272.7766 0008105 231.4883 128.5572 14.30697371559511 FO-29 1 24278U 96046B 23229.41238664 -.00000031 00000-0 74575-5 0 9998 2 24278 98.5335 199.6402 0349119 258.0673 98.1132 13.53152076333463 NOAA-15 1 25338U 98030A 23229.81757885 .00000269 00000-0 12977-3 0 9994 2 25338 98.6032 257.8126 0011318 130.1780 230.0393 14.26373271314044 GO-32 1 25397U 98043D 23229.42534372 .00000111 00000-0 68438-4 0 9994 2 25397 98.8731 187.4240 0001061 15.0654 345.0556 14.23898582304262 ISS 1 25544U 98067A 23229.83576409 .00012962 00000-0 23946-3 0 9997 2 25544 51.6406 23.1156 0003504 317.7947 129.0052 15.49425785411355 NO-44 1 26931U 01043C 23229.42846963 .00000223 00000-0 11627-3 0 9996 2 26931 67.0514 38.6897 0007702 262.7929 97.2297 14.30963053142502 SO-50 1 27607U 02058C 23229.83080858 .00001371 00000-0 20552-3 0 9994 2 27607 64.5539 75.9180 0062847 211.8110 147.9191 14.77491135111543 CO-55 1 27844U 03031E 23228.44601560 .00000418 00000-0 20580-3 0 9996 2 27844 98.6788 234.8236 0008866 316.8039 43.2443 14.22845347 44333 CO-57 1 27848U 03031J 23228.75940771 .00000355 00000-0 17939-3 0 9998 2 27848 98.6826 235.5245 0009041 332.2525 27.8169 14.22347583 44169 RS-22 1 27939U 03042A 23229.80594510 .00001497 00000-0 26632-3 0 9992 2 27939 98.2515 17.2621 0011402 305.3755 191.1300 14.68577306 63581 NOAA-18 1 28654U 05018A 23229.81453602 .00000247 00000-0 15619-3 0 9994 2 28654 98.9069 303.9000 0013986 201.5217 158.5369 14.12988820940270 CO-58 1 28895U 05043F 23228.34859673 .00001823 00000-0 34200-3 0 9992 2 28895 98.1611 359.9807 0015179 240.4701 119.4989 14.65885203949850 CO-65 1 32785U 08021C 23229.80836912 .00003910 00000-0 38325-3 0 9998 2 32785 97.7108 194.4790 0010125 256.7580 103.2510 14.92786822830085 AAUSAT2 1 32788U 08021F 23229.40450830 .00011807 00000-0 83081-3 0 9991 2 32788 97.5647 207.5245 0009778 133.9129 226.2906 15.05172577832417 DO-64 1 32789U 08021G 23229.01947779 .00099814 00000-0 20583-2 0 9993 2 32789 97.2973 250.4422 0004191 203.5648 156.5410 15.45512859836857 CO-66 1 32791U 08021J 23228.42671631 .00005261 00000-0 45622-3 0 9996 2 32791 97.6601 198.4426 0010727 201.1825 158.8954 14.97455185830755 RS-30 1 32953U 08025A 23229.77292382 .00000047 00000-0 26557-3 0 9994 2 32953 82.5003 278.7919 0020326 53.3595 306.9350 12.43127860691307 PRISM 1 33493U 09002B 23229.26810111 .00012482 00000-0 81698-3 0 9993 2 33493 98.2440 248.1244 0015609 195.0717 165.0046 15.07813542792957 NOAA-19 1 33591U 09005A 23229.79601837 .00000231 00000-0 14897-3 0 9992 2 33591 99.0953 276.6942 0014808 71.6671 288.6110 14.12805335748640 SRMSAT 1 37841U 11058D 23229.24738003 .00000496 00000-0 12735-3 0 9993 2 37841 19.9702 200.8428 0011735 343.6859 45.9230 14.10928419611664 HRBE 1 37855U 11061F 23229.80608063 .00024575 00000-0 70298-3 0 9998 2 37855 101.7085 226.4215 0111152 210.1945 149.2844 15.29986770646447 RS-40 1 38735U 12041C 23229.74855721 .00000026 00000-0 11938-3 0 9994 2 38735 82.4805 359.7005 0017974 160.1568 200.0214 12.42595220501466 ZACUBE-1 1 39417U 13066B 23229.40626675 .00004130 00000-0 47192-3 0 9998 2 39417 97.6896 188.9582 0056323 86.3344 274.4310 14.85414300526283 Delfi-N3xt 1 39428U 13066N 23229.72353774 .00007812 00000-0 11055-2 0 9990 2 39428 97.8307 152.3917 0109326 352.6397 7.3201 14.73281495521371 GOMX-1 1 39430U 13066Q 23229.78588124 .00001983 00000-0 34750-3 0 9999 2 39430 97.7713 117.3257 0145813 137.9826 223.2671 14.62073957518538 LO-74 1 39440U 13066AA 23229.09885513 .00002787 00000-0 35977-3 0 9991 2 39440 97.7749 175.8896 0074459 187.7299 172.2772 14.79840084524364 AO-73 1 39444U 13066AE 23229.43166670 .00005928 00000-0 64627-3 0 9993 2 39444 97.6759 191.5855 0054397 71.5992 289.1129 14.87229567525335 SPROUT 1 39770U 14029E 23229.78705871 .00026113 00000-0 18427-2 0 9990 2 39770 97.9922 358.9927 0005955 108.2336 251.9537 15.04916521501413 DTUSAT-2 1 40030U 14033W 23229.25585265 .00005755 00000-0 54948-3 0 9999 2 40030 97.9693 170.6048 0012765 90.1299 270.1383 14.93634546497626 EO-80 1 40032U 14033Y 23229.09734553 .00005102 00000-0 48774-3 0 9995 2 40032 97.9685 170.4615 0012375 91.2199 269.0437 14.93640360497588 HODOYOSHI-1 1 40299U 14070B 23229.80022651 .00013106 00000-0 38553-3 0 9996 2 40299 97.1893 290.9058 0011368 64.1671 296.0744 15.35141614488250 GRIFEX 1 40379U 15003D 23229.64130494 .00058191 00000-0 10740-2 0 9999 2 40379 99.0785 181.4612 0075047 60.5237 300.3466 15.45785041472861 XW-2C 1 40906U 15049H 23229.81135917 .00014029 00000-0 51484-3 0 9992 2 40906 97.4935 237.2187 0009080 310.9958 49.0495 15.28032121437808 XW-2D 1 40907U 15049J 23229.81045812 .00017240 00000-0 58913-3 0 9999 2 40907 97.4913 237.9324 0007790 301.8385 58.2097 15.30327809437908 LILACSAT-2 1 40908U 15049K 23229.83773529 .00007126 00000-0 32859-3 0 9998 2 40908 97.5259 232.7543 0012772 343.2568 16.8244 15.20495974437168 XW-2E 1 40909U 15049L 23229.83409619 .00039131 00000-0 89978-3 0 9990 2 40909 97.4501 244.9126 0005446 241.0076 119.0625 15.42544231438636 XW-2F 1 40910U 15049M 23229.85882239 .00038053 00000-0 89591-3 0 9990 2 40910 97.4594 244.1896 0006045 247.1768 112.8840 15.41836294438370 XW-2B 1 40911U 15049N 23229.81605695 .00017309 00000-0 59608-3 0 9993 2 40911 97.4892 238.3353 0007833 303.9964 56.0531 15.30075785437788 DCBB 1 40912U 15049P 23229.80126275 .00052222 00000-0 94441-3 0 9992 2 40912 97.4132 249.0310 0007890 192.8699 167.2351 15.49491123439135 IO-86 1 40931U 15052B 23229.32500207 .00001277 00000-0 87044-4 0 9991 2 40931 6.0012 10.0693 0012403 80.7165 279.4365 14.77315749426404 ChubuSat-2 1 41338U 16012B 23229.25640269 .00004711 00000-0 32210-3 0 9995 2 41338 31.0014 187.2360 0011701 67.0365 293.1505 15.04483810411582 ChubuSat-3 1 41339U 16012C 23229.25786939 .00004243 00000-0 29100-3 0 9995 2 41339 31.0078 184.4656 0011651 74.2223 285.9698 15.04295727411576 Horyu-4 1 41340U 16012D 23229.13828448 .00008390 00000-0 51426-3 0 9999 2 41340 31.0034 151.0251 0010686 136.3592 223.7892 15.08795907411932 e-st@r-II 1 41459U 16025D 23229.81039653 .00033781 00000-0 88589-3 0 9993 2 41459 98.1795 77.5294 0098000 243.4198 115.6974 15.33751310402330 AAUSAT4 1 41460U 16025E 23229.13027409 .00466125 00000-0 22115-2 0 9990 2 41460 98.1424 92.8196 0034811 186.2275 173.8563 15.80891343403314 LO-87 1 41557U 16033B 23229.81332335 .00121402 00000-0 99142-3 0 9999 2 41557 97.3890 340.6102 0006516 254.0885 105.9660 15.70184532403264 NuSat2 1 41558U 16033C 23229.79103734 .00170534 00000-0 10330-2 0 9997 2 41558 97.4174 349.4252 0007128 247.2177 112.8336 15.77046577403633 Lapan A3 1 41603U 16040E 23229.83421643 .00002846 00000-0 12428-3 0 9994 2 41603 97.1638 252.5545 0014479 98.2717 262.0163 15.22796808396878 Pratham 1 41783U 16059A 23229.32925717 .00000799 00000-0 15997-3 0 9997 2 41783 97.8661 257.7169 0031463 266.7596 93.0008 14.64075128367922 TY-1 1 41844U 16066D 23229.85849505 .00097279 00000-0 10823-2 0 9992 2 41844 97.3618 251.2488 0008927 165.8106 194.3404 15.62506095377281 CAS-2T 1 41847U 16066G 23229.74132798 .00001179 00000-0 18350-3 0 9990 2 41847 98.5006 297.9925 0359111 12.9256 348.0844 14.39940469355667 CAS-4B 1 42759U 17034B 23229.58186317 .00011483 00000-0 55628-3 0 9995 2 42759 43.0148 134.1154 0010055 145.0552 215.0958 15.18505112340962 CAS-4A 1 42761U 17034D 23229.86099434 .00009907 00000-0 48136-3 0 9996 2 42761 43.0142 131.0853 0010877 147.8111 212.3403 15.18516425341015 NIUSat 1 42766U 17036B 23229.81578874 .00034368 00000-0 78086-3 0 9994 2 42766 97.1521 259.8652 0008013 223.1493 136.9128 15.42910032342102 Aalto 1 1 42775U 17036L 23229.80248654 .00022063 00000-0 59266-3 0 9991 2 42775 97.1480 258.1518 0007829 230.6523 129.4029 15.37902576341980 URSA MAIOR 1 42776U 17036M 23228.87006941 .00027505 00000-0 68417-3 0 9993 2 42776 97.1488 258.7801 0007488 227.6741 132.3872 15.40224025341922 Max Valier Sat 1 42778U 17036P 23229.10072681 .00028693 00000-0 67458-3 0 9999 2 42778 97.1488 262.6149 0006235 221.6416 138.4358 15.41933346342106 Pegasus 1 42784U 17036V 23229.09255264 .00061159 00000-0 97573-3 0 9999 2 42784 97.1418 265.9810 0005999 201.7490 158.3510 15.53000054342413 SUCHAI 1 1 42788U 17036Z 23229.10431925 .00173231 00000-0 13719-2 0 9999 2 42788 97.1351 270.9458 0006616 192.2715 167.8388 15.70771608342819 SKCUBE 1 42789U 17036AA 23229.34226239 .00096706 00000-0 11674-2 0 9995 2 42789 97.1364 268.9153 0006384 193.0206 167.0888 15.60406020342627 VENTA 1 1 42791U 17036AC 23229.09948640 .00059123 00000-0 93266-3 0 9997 2 42791 97.1415 267.2135 0005224 195.6963 164.4130 15.53327321342471 Robusta 1B 1 42792U 17036AD 23228.86641722 .00141103 00000-0 13244-2 0 9990 2 42792 97.1341 270.0951 0005997 187.3116 172.8059 15.66707654342673 D-SAT 1 42794U 17036AF 23229.40689256 .00005366 00000-0 41828-3 0 9997 2 42794 97.4686 218.6482 0117585 95.7905 265.6736 14.96201561335114 TechnoSat 1 42829U 17042E 23229.81635276 .00003223 00000-0 30713-3 0 9992 2 42829 97.3871 63.5805 0013861 25.2488 334.9408 14.93956282331699 AO-91 1 43017U 17073E 23228.96626542 .00005886 00000-0 40934-3 0 9990 2 43017 97.6214 110.9196 0229246 228.1479 129.9971 14.86987527310213 PICSAT 1 43132U 18004X 23229.19669298 .00165461 00000-0 12512-2 0 9990 2 43132 97.3201 314.7708 0005481 235.1325 124.9423 15.71908885312087 AO-92 1 43137U 18004AC 23229.46403495 .00050726 00000-0 87237-3 0 9994 2 43137 97.3245 309.5169 0004027 262.2843 97.7952 15.50951577311787 TianYi 2 1 43155U 18008A 23229.85938405 .00022877 00000-0 83558-3 0 9993 2 43155 97.2928 280.9815 0013948 94.0098 266.2736 15.28022638308061 Zhou Enlai 1 43156U 18008B 23229.84046439 .00024621 00000-0 87680-3 0 9999 2 43156 97.2976 281.1831 0011484 95.6259 264.6291 15.28869798307990 TianYi 6 1 43158U 18008D 23229.13197031 .00019341 00000-0 77561-3 0 9998 2 43158 97.2996 277.1170 0011997 101.1788 259.0799 15.24977379307705 S-Net D 1 43186U 18014G 23229.26022534 .00004159 00000-0 33053-3 0 9994 2 43186 97.6188 131.8919 0014524 336.9286 23.1284 15.00910536302711 S-Net B 1 43187U 18014H 23229.26158384 .00004157 00000-0 33036-3 0 9997 2 43187 97.6189 131.8184 0015044 334.9538 25.0955 15.00906113302715 S-Net A 1 43188U 18014J 23229.59493887 .00004344 00000-0 34495-3 0 9992 2 43188 97.6191 132.2375 0014970 333.8268 26.2198 15.00911799302764 S-Net C 1 43189U 18014K 23229.26419727 .00004191 00000-0 33294-3 0 9994 2 43189 97.6194 131.7986 0015882 330.2653 29.7667 15.00902615301262 CubeBel-1 1 43666U 18083E 23229.86102457 .00040482 00000-0 93540-3 0 9998 2 43666 97.3755 261.9921 0006792 243.5486 116.5065 15.42381251266694 Changshagaoxin 1 43669U 18083H 23229.85730152 .00030991 00000-0 82864-3 0 9990 2 43669 97.3754 256.2476 0004766 243.0880 116.9878 15.38001452266413 Ten-Koh 1 43677U 18084G 23229.73184718 .00003104 00000-0 30108-3 0 9998 2 43677 98.0217 10.7895 0013906 308.0553 51.9410 14.93365595261244 PO-101 1 43678U 18084H 23229.82537771 .00002049 00000-0 19959-3 0 9998 2 43678 98.0315 15.0732 0008650 324.7983 35.2663 14.93645355261468 QO-100 1 43700U 18090A 23229.06369013 .00000140 00000-0 00000+0 0 9992 2 43700 0.0134 99.1315 0002245 84.7129 190.0642 1.00271109 17546 Reaktor Hello World 1 43743U 18096AA 23229.01228626 .00122504 00000-0 10659-2 0 9997 2 43743 97.3134 318.1507 0006958 294.2722 65.7812 15.68632660263677 MinXSS-2 1 43758U 18099A 23228.61479779 .00005618 00000-0 42740-3 0 9991 2 43758 97.5977 291.5210 0017573 280.2819 79.6424 15.02392002256814 AO-95 1 43770U 18099N 23229.12347801 .00006393 00000-0 51068-3 0 9996 2 43770 97.5738 289.0265 0013154 307.5344 52.4684 15.00522125256740 RANGE-B 1 43772U 18099Q 23228.98795340 .00008644 00000-0 65598-3 0 9990 2 43772 97.5707 291.8373 0006024 228.0801 131.9911 15.02431259256792 RANGE-A 1 43773U 18099R 23229.09212217 .00003914 00000-0 32791-3 0 9995 2 43773 97.5579 286.8837 0011635 269.9278 90.0612 14.98931886256681 MOVE-II 1 43780U 18099Y 23228.16792037 .00009655 00000-0 68457-3 0 9999 2 43780 97.5683 290.9606 0006885 315.6524 44.4150 15.04961199256755 SNUSat 2 1 43782U 18099AA 23229.09356489 .00004913 00000-0 39585-3 0 9993 2 43782 97.5645 289.5094 0012468 245.7460 114.2462 15.00311029256766 SnugLite 1 43784U 18099AC 23229.81963094 .00005493 00000-0 43530-3 0 9990 2 43784 97.5545 289.8867 0006416 248.5502 111.5038 15.00939442256913 ITASat 1 1 43786U 18099AE 23229.40748392 .00003952 00000-0 32119-3 0 9998 2 43786 97.5749 290.3400 0014032 285.6108 74.3567 15.00083441256820 EAGLET 1 1 43790U 18099AJ 23229.46852799 .00003861 00000-0 31854-3 0 9990 2 43790 97.5743 290.8131 0009832 286.5684 73.4459 14.99547203256565 ESEO 1 43792U 18099AL 23229.42290996 .00001761 00000-0 15422-3 0 9993 2 43792 97.5646 289.0527 0011585 279.9758 80.0157 14.97900580256551 CSIM 1 43793U 18099AM 23229.64203023 .00010252 00000-0 71744-3 0 9997 2 43793 97.5733 293.8087 0013628 276.6425 83.3250 15.05381563256822 Astrocast 0.1 1 43798U 18099AS 23228.98380593 .00009907 00000-0 72542-3 0 9998 2 43798 97.5823 292.4286 0010815 253.9383 106.0652 15.03716094256906 JO-97 1 43803U 18099AX 23229.43711595 .00006205 00000-0 48244-3 0 9996 2 43803 97.5719 290.4786 0011500 253.2212 106.7751 15.01590380256886 Suomi 100 1 43804U 18099AY 23229.11525933 .00006306 00000-0 49417-3 0 9996 2 43804 97.5741 289.9196 0017461 270.1991 89.7232 15.01216276256832 Al Farabi 2 1 43805U 18099AZ 23229.11688538 .00008673 00000-0 64520-3 0 9999 2 43805 97.5577 291.0327 0011593 251.3962 108.6004 15.03147898256900 CHOMPTT 1 43855U 18104G 23229.43556964 .00030964 00000-0 68252-3 0 9997 2 43855 85.0291 124.3941 0014763 87.9239 272.3705 15.43654761260012 ISAT 1 43879U 18111D 23229.28562523 .00008618 00000-0 63908-3 0 9996 2 43879 97.6375 132.9029 0013717 320.2592 39.7627 15.03254242251491 UWE-4 1 43880U 18111E 23229.68982980 .00008254 00000-0 61582-3 0 9997 2 43880 97.6271 133.9285 0017831 327.3008 32.7112 15.02983943251605 Sparrow 1 43881U 18111F 23229.27793368 .00008257 00000-0 60693-3 0 9998 2 43881 97.6446 134.3172 0011219 9.4898 350.6538 15.03626806251561 Lume 1 1 43908U 18111AJ 23228.94694450 .00046897 00000-0 80152-3 0 9997 2 43908 97.1282 111.4726 0009882 352.4008 7.7093 15.51098719258799 FO-99 1 43937U 19003F 23229.03268094 .00098576 00000-0 11356-2 0 9992 2 43937 97.0794 255.8181 0010550 68.2326 292.0055 15.61580235255519 AstroCast 0.2 1 44083U 19018F 23229.40438908 .00085079 00000-0 11019-2 0 9995 2 44083 97.2595 290.0243 0001655 8.8280 351.3005 15.58605504243927 AISTechSat 3 1 44103U 19018AB 23229.83348590 .00035353 00000-0 75608-3 0 9997 2 44103 97.2472 287.9928 0008648 60.4283 299.7827 15.44697332244018 AISat 1 1 44104U 19018AC 23229.41162262 .00025577 00000-0 44933-3 0 9996 2 44104 97.3738 321.9869 0038164 36.2117 324.1706 15.49660032245192 Prox-1 1 44339U 19036A 23229.68715693 .00008039 00000-0 15882-2 0 9991 2 44339 24.0019 13.3172 0008958 225.3803 134.5959 14.60232486220681 Move-IIb 1 44398U 19038N 23229.21312971 .00086686 00000-0 16401-2 0 9991 2 44398 97.6613 215.2623 0015295 83.4278 276.8712 15.47955425228087 SONATE 1 44400U 19038Q 23229.44332729 .00012347 00000-0 53109-3 0 9993 2 44400 97.6879 208.4198 0022438 98.6288 261.7491 15.22558678227552 BeeSat 9 1 44412U 19038AC 23228.45542223 .00027144 00000-0 84854-3 0 9990 2 44412 97.6763 211.2157 0017664 94.5691 265.7569 15.32977698227381 JAISAT-1 1 44419U 19038F 23229.69890958 .00030977 00000-0 95726-3 0 9993 2 44419 97.6765 213.6138 0016896 87.7768 272.5408 15.33330242227950 Taurus 1 1 44530U 19059C 23229.82020412 .00004512 00000-0 11602-2 0 9991 2 44530 98.5591 338.6052 0011928 259.9243 100.0605 14.50629842207571 Duchifat 3 1 44854U 19089C 23229.76965102 .00009544 00000-0 62435-3 0 9991 2 44854 36.9613 82.9606 0006489 96.7453 263.4030 15.07287445202125 OPS-SAT 1 44878U 19092F 23228.77783499 .00019858 00000-0 54182-3 0 9997 2 44878 97.4735 58.4352 0007123 275.3700 84.6732 15.37453215203092 TO-108 1 44881U 19093C 23229.78002384 .00001144 00000-0 14821-3 0 9996 2 44881 97.8593 307.1817 0013545 233.9613 126.0346 14.82678852197921 FloripaSat 1 1 44885U 19093G 23229.82373446 .00004428 00000-0 50845-3 0 9999 2 44885 97.8666 310.3169 0012556 233.9486 126.0567 14.86295066198103 RS-44 1 44909U 19096E 23227.95380679 .00000017 00000-0 19099-4 0 9994 2 44909 82.5232 308.2378 0218150 47.4815 314.4484 12.79722064169854 BY70-2 1 45857U 20042B 23229.58998416 .00012299 00000-0 11890-2 0 9999 2 45857 97.9246 309.7983 0009956 160.4625 199.6977 14.92906740168690 UPMSat 2 1 46276U 20061E 23228.42780595 .00008604 00000-0 35251-3 0 9998 2 46276 97.3428 294.7818 0002870 109.8384 250.3163 15.24517002163466 AmicalSat 1 46287U 20061R 23228.14873784 .00012574 00000-0 55975-3 0 9998 2 46287 97.3962 293.5776 0001560 193.7425 166.3768 15.21598963162822 SALSAT 1 46495U 20068K 23229.43144394 .00004587 00000-0 29916-3 0 9998 2 46495 97.7727 178.1182 0013379 271.8778 88.0918 15.08330525158303 CAPE 3 1 47309U 21002A 23229.33497089 .00049048 00000-0 10060-2 0 9993 2 47309 60.6748 183.3637 0009282 320.4607 39.5812 15.45675699143722 AO-109 1 47311U 21002C 23229.44422098 .00035308 00000-0 81369-3 0 9991 2 47311 60.6791 182.4645 0006654 317.6984 42.3598 15.42377021143737 ExoCube 2 1 47319U 21002L 23229.08873107 .00035483 00000-0 84362-3 0 9990 2 47319 60.6771 186.2848 0007610 315.8376 44.2111 15.41429938143598 UVSQ-SAT 1 47438U 21006AB 23229.10620062 .00019279 00000-0 74359-3 0 9999 2 47438 97.3796 285.4008 0008736 217.6832 142.3795 15.26313510141935 YUSAT 1 1 47439U 21006AC 23229.08625146 .00025470 00000-0 89240-3 0 9990 2 47439 97.3802 286.3986 0008356 213.0050 147.0670 15.29425538141996 SOMP 2b 1 47445U 21006AJ 23229.58515063 .00017341 00000-0 68578-3 0 9997 2 47445 97.3760 285.0265 0008513 221.3194 138.7401 15.25503482141976 IDEASSat 1 47458U 21006AX 23228.14923773 .00013454 00000-0 54550-3 0 9999 2 47458 97.3862 284.4076 0007781 225.2548 134.8057 15.24730229141736 CubeSX-Sirius-HSE 1 47951U 21022V 23229.80673546 .00011311 00000-0 61299-3 0 9997 2 47951 97.4889 126.1841 0020174 119.1034 241.2221 15.14584251132353 CubeSX-HSE 1 47952U 21022W 23229.84332820 .00010610 00000-0 57404-3 0 9993 2 47952 97.4894 126.2728 0020253 118.1347 242.1935 15.14657402132361 KSU-Cubesat 1 47954U 21022Y 23229.26340967 .00013108 00000-0 68888-3 0 9995 2 47954 97.4900 126.1680 0019566 118.5546 241.7659 15.15645104132025 GRBAlpha 1 47959U 21022AD 23229.76052529 .00010148 00000-0 54803-3 0 9992 2 47959 97.4895 126.2847 0020054 118.7520 241.5730 15.14738063131176 Orbicraft-Zorkiy 1 47960U 21022AE 23229.82002772 .00011465 00000-0 60507-3 0 9997 2 47960 97.4926 126.8633 0019560 117.4316 242.8908 15.15530675131891 STECCO 1 47962U 21022AG 23229.69649132 .00022711 00000-0 97695-3 0 9995 2 47962 97.4893 129.6930 0014764 105.0538 255.2333 15.22544154131397 MO-110 1 47964U 21022AJ 23229.25096018 .00024162 00000-0 10102-2 0 9997 2 47964 97.4915 129.9389 0016748 102.2974 258.0139 15.23467252131368 FEES 1 48082U 21022AL 23228.97401144 .00049316 00000-0 15846-2 0 9995 2 48082 97.4895 131.5902 0012911 96.6182 263.6530 15.32034743131151 TUBIN 1 48900U 21059X 23229.77520948 .00010370 00000-0 47647-3 0 9990 2 48900 97.6080 3.8380 0009931 71.4013 288.8300 15.20528194118537 IT-SPINS 1 49017U 21013G 23229.36179607 .00045542 00000-0 89252-3 0 9994 2 49017 51.5898 137.8014 0006756 175.6140 184.4907 15.46889079119169 LEDSAT 1 49069U 21073D 23229.62387238 .00009844 00000-0 52381-3 0 9995 2 49069 97.4788 299.4910 0022065 266.8790 92.9917 15.15237348110200 CUTE 1 49263U 21088D 23229.15393346 .00010071 00000-0 62464-3 0 9999 2 49263 97.5399 293.9324 0018460 58.1661 302.1362 15.09781046103480 TeikyoSat 4 1 49396U 21102B 23228.87385284 .00002041 00000-0 15790-3 0 9991 2 49396 97.5109 278.9801 0012856 226.2765 133.7396 15.02504249 96886 Z-Sat 1 49399U 21102E 23229.78293530 .00002905 00000-0 20665-3 0 9993 2 49399 97.4789 280.9911 0020918 215.8897 144.0926 15.05256636 97157 KOSEN 1 1 49402U 21102H 23229.78252462 .00004522 00000-0 30350-3 0 9996 2 49402 97.4720 281.6124 0020152 203.1944 156.8376 15.07154744 97232 HO-113 1 50466U 21131B 23229.84679106 .00000681 00000-0 23511-3 0 9998 2 50466 98.5505 311.1992 0003396 329.2426 30.8562 14.39007979 86221 Tevel-3 1 50988U 22002E 23229.80442224 .00023810 00000-0 88099-3 0 9991 2 50988 97.4289 296.4428 0006963 28.6525 331.5096 15.27660526 88168 Tevel-8 1 50989U 22002F 23229.62944118 .00022988 00000-0 85284-3 0 9999 2 50989 97.4306 296.3343 0006952 28.4984 331.6634 15.27579462 88133 Tevel-5 1 50998U 22002Q 23229.77914661 .00024323 00000-0 87430-3 0 9995 2 50998 97.4284 296.8788 0007823 21.3207 338.8357 15.28602436 88190 Tevel-6 1 50999U 22002R 23229.77768880 .00024120 00000-0 86710-3 0 9991 2 50999 97.4282 296.8707 0007817 21.0262 339.1297 15.28600156 88195 Tevel-1 1 51013U 22002AF 23229.81623396 .00023927 00000-0 88675-3 0 9992 2 51013 97.4280 296.3871 0006850 28.3026 331.8584 15.27605976 88161 Grizu-263a 1 51025U 22002AT 23229.66707509 .00198091 00000-0 23519-2 0 9997 2 51025 97.4391 304.4161 0003467 302.5296 57.5625 15.60514717 88591 NO-116 1 51031U 22002AZ 23229.00282338 .00051957 00000-0 14026-2 0 9992 2 51031 97.4405 299.4895 0007109 14.6760 345.4689 15.37573739 88238 IRIS-A 1 51044U 22002BN 23229.42904073 .00010811 00000-0 49541-3 0 9994 2 51044 97.4305 293.9842 0008417 36.9623 323.2190 15.20615502 87967 Tevel-7 1 51062U 22002CG 23229.82607448 .00023555 00000-0 87285-3 0 9990 2 51062 97.4301 296.5020 0006894 27.2758 332.8842 15.27613527 88164 Tevel-4 1 51063U 22002CH 23229.83454565 .00023204 00000-0 86164-3 0 9998 2 51063 97.4297 296.4873 0006961 27.5640 332.5967 15.27547814 88162 Tevel-2 1 51069U 22002CP 23229.80602840 .00024083 00000-0 89082-3 0 9990 2 51069 97.4286 296.4140 0006907 28.5032 331.6584 15.27667823 88167 DELFI-PQ 1 51074U 22002CU 23229.45367052 .00060346 00000-0 14122-2 0 9994 2 51074 97.4543 302.7974 0007208 41.2520 318.9271 15.41898958 88425 SO-115 1 51080U 22002DA 23228.93668004 .00031044 00000-0 10094-2 0 9991 2 51080 97.4578 299.9302 0009989 52.7544 307.4607 15.31792351 88181 SO-114 1 51081U 22002DB 23228.65559399 .00027112 00000-0 87660-3 0 9992 2 51081 97.4587 299.6305 0010134 52.9963 307.2204 15.31999901 88140 OreSat0 1 52017U 22026K 23228.50220584 .00018300 00000-0 68696-3 0 9990 2 52017 97.5089 231.1679 0019659 225.5877 134.3753 15.27078564 78747 Planetum 1 1 52738U 22057G 23228.73500259 .00016651 00000-0 73015-3 0 9997 2 52738 97.5433 344.7605 0007598 134.3159 225.8701 15.22031399 67869 Foresail-1 1 52766U 22057AL 23229.74453588 .00012396 00000-0 56597-3 0 9990 2 52766 97.5560 346.6601 0012885 114.8083 245.4494 15.20666061 68037 SNUGLITE 2 1 52899U 22065F 23228.62283796 .00001296 00000-0 28263-3 0 9990 2 52899 98.0771 11.8152 0008539 35.9984 324.1790 14.59471763 59678 CTIM 1 52950U 22074G 23229.75884921 .00083097 00000-0 14255-2 0 9994 2 52950 44.9984 13.5031 0014477 269.1090 90.8143 15.50165750 63137 IO-117 1 53106U 22080B 23227.19645840 -.00000003 00000-0 00000+0 0 9993 2 53106 70.1558 299.2185 0008561 175.7703 184.3030 6.42556951 25547 AstroBioCubeSat 1 53107U 22080C 23025.30817895 -.00000003 00000-0 00000-0 0 9995 2 53107 70.1710 9.4734 0013545 210.3158 149.6718 6.42110537 12478 SelfieSat 1 53951U 22057BC 23229.28256754 .00023239 00000-0 95246-3 0 9994 2 53951 97.5485 346.1633 0009211 126.9258 233.2824 15.24239299 67985 FO-118 1 54684U 22167C 23229.84292041 .00014575 00000-0 77020-3 0 9994 2 54684 97.5704 7.0843 0014112 121.0547 239.2073 15.15510724 38011 SSS-2B 1 56184U 23054G 23229.71750526 .00014776 00000-0 60588-3 0 9994 2 56184 97.4022 123.8734 0010968 168.0930 192.0569 15.24301563 19540 CIRBE 1 56188U 23054L 23228.95482143 .00018033 00000-0 72005-3 0 9997 2 56188 97.3981 123.1344 0009680 162.5668 197.5904 15.25161884 19435 INSPIRE-Sat 7 1 56211U 23054AK 23229.15227087 .00019741 00000-0 74411-3 0 9991 2 56211 97.3997 123.6753 0015226 149.1721 211.0415 15.26997174 19486 RoseyCubesat 1 1 56212U 23054AL 23229.19861403 .00022025 00000-0 82010-3 0 9995 2 56212 97.4005 123.7753 0015510 148.4662 211.7510 15.27375371 19495 ARKSAT 1 1 56311U 98067VC 23228.92625783 .00114479 00000-0 10716-2 0 9998 2 56311 51.6364 20.9760 0007313 301.5042 58.5239 15.66347026 17859 AuroraSat 1 56312U 98067VD 23228.90621448 .00161003 00000-0 12887-2 0 9997 2 56312 51.6344 20.0794 0008305 297.4156 62.5996 15.69995743 17894 Ex-Alta 2 1 56313U 98067VE 23229.68940870 .00110674 00000-0 10235-2 0 9990 2 56313 51.6341 17.0592 0007506 303.2897 56.7379 15.66661913 17991 LightCube 1 56314U 98067VF 23229.24632424 .00150143 00000-0 12433-2 0 9993 2 56314 51.6340 18.5990 0008851 291.7529 68.2526 15.69206916 17966 NEUDOSE 1 56315U 98067VG 23229.45289196 .00068595 00000-0 77377-3 0 9999 2 56315 51.6355 19.9886 0007518 296.3185 63.7036 15.61839406 17919 YukonSat 1 56316U 98067VH 23229.44295055 .00093653 00000-0 95002-3 0 9998 2 56316 51.6353 19.1706 0007921 294.2277 65.7889 15.64416835 17949 URESAT-1 1 56992U 23084BU 23229.56961752 .00013298 00000-0 75140-3 0 9990 2 56992 97.5122 345.1010 0017876 10.9103 349.2512 15.13090355 9924 MRC-100 1 56993U 23084BV 23228.31311347 .00012551 00000-0 70928-3 0 9992 2 56993 97.5122 343.8683 0018002 15.2037 344.9731 15.13099570 9745 UmKA 1 (RS40S) 1 57172U 23091G 23229.72400337 .00004129 00000-0 30432-3 0 9992 2 57172 97.6608 279.9357 0020148 78.7172 281.6316 15.03716226 7680 CubeBel-2 (EU11S) 1 57175U 23091K 23229.74458877 .00006480 00000-0 48189-3 0 9999 2 57175 97.6611 279.9036 0018486 90.2615 270.0729 15.03183277 7688 /EX